AB2TC-1 Weather Reports


time (UTC)temp
C
wind
direction
speed
KPH
gust
KPH
rain 1hr
cm
rain 24hr
cm
rain mn
cm
humidity
%
barometer
mb
20260504050501 11 222 0.0 6.4 0.00 0.00 0.00 50 1008.6
20260504050002 11 222 0.0 3.2 0.00 0.00 0.00 50 1008.6
20260504045001 11 206 0.0 3.2 0.00 0.00 0.00 51 1008.8
20260504044501 11 174 0.0 3.2 0.00 0.00 0.00 52 1008.8
20260504044001 11 205 0.0 1.6 0.00 0.00 0.00 52 1008.8
20260504043501 11 295 0.0 1.6 0.00 0.00 0.00 52 1008.8
20260504043001 11 221 0.0 1.6 0.00 0.00 0.00 53 1008.8
20260504042501 11 328 0.0 1.6 0.00 0.00 0.00 52 1008.8
20260504042001 11 209 0.0 1.6 0.00 0.00 0.00 53 1008.8
20260504041501 11 216 0.0 1.6 0.00 0.00 0.00 53 1008.9
20260504041001 11 218 0.0 1.6 0.00 0.00 0.00 54 1008.9
20260504040501 11 199 0.0 3.2 0.00 0.00 0.00 54 1008.9
20260504040004 11 245 0.0 3.2 0.00 0.00 0.00 53 1009.0
20260504035501 11 212 0.0 1.6 0.00 0.00 0.00 54 1009.0
20260504035002 11 194 0.0 1.6 0.00 0.00 0.00 54 1008.9
20260504034502 10 170 0.0 1.6 0.00 0.00 0.00 55 1009.0
20260504034001 10 207 0.0 1.6 0.00 0.00 0.00 56 1009.0
20260504033502 10 212 0.0 1.6 0.00 0.00 0.00 56 1009.1
20260504033003 10 211 0.0 3.2 0.00 0.00 0.00 56 1009.2
20260504032502 10 260 0.0 6.4 0.00 0.00 0.00 57 1009.2
20260504032002 10 239 0.0 6.4 0.00 0.00 0.00 57 1009.4
20260504031502 10 261 0.0 4.8 0.00 0.00 0.00 58 1009.4
20260504031001 10 243 0.0 1.6 0.00 0.00 0.00 59 1009.4
20260504030503 10 280 0.0 1.6 0.00 0.00 0.00 60 1009.4
20260504030004 10 256 0.0 3.2 0.00 0.00 0.00 60 1009.4
20260504025502 10 278 0.0 3.2 0.00 0.00 0.00 60 1009.5
20260504025001 10 243 0.0 1.6 0.00 0.00 0.00 61 1009.4
20260504024002 10 250 0.0 4.8 0.00 0.00 0.00 62 1009.4
20260504023502 9 228 0.0 1.6 0.00 0.00 0.00 64 1009.5
20260504023002 9 240 0.0 1.6 0.00 0.00 0.00 63 1009.6
20260504022501 9 288 0.0 3.2 0.00 0.00 0.00 64 1009.8
20260504021502 9 156 0.0 4.8 0.00 0.00 0.00 64 1009.9
20260504021002 9 269 1.6 8.0 0.00 0.00 0.00 65 1010.0
20260504020502 9 164 1.6 8.0 0.00 0.00 0.00 65 1010.0
20260504020003 9 165 3.2 9.7 0.00 0.00 0.00 65 1010.0
20260504015502 9 266 3.2 8.0 0.00 0.00 0.00 66 1010.1
20260504014501 10 251 3.2 19.3 0.00 0.00 0.00 65 1010.5
20260504014002 10 285 3.2 9.7 0.00 0.00 0.00 61 1010.4
20260504013502 11 247 4.8 14.5 0.00 0.00 0.00 57 1010.4
20260504013002 11 300 3.2 14.5 0.00 0.00 0.00 54 1010.2
20260504012501 11 285 3.2 6.4 0.00 0.00 0.00 53 1010.1
20260504012001 11 252 4.8 14.5 0.00 0.00 0.00 52 1010.0
20260504011502 11 261 4.8 14.5 0.00 0.00 0.00 51 1009.8
20260504011002 11 288 4.8 17.7 0.00 0.00 0.00 50 1009.7
20260504010003 12 270 8.0 24.1 0.00 0.00 0.00 48 1009.8
20260504005502 12 281 8.0 24.1 0.00 0.00 0.00 48 1009.6
20260504005002 12 264 8.0 22.5 0.00 0.00 0.00 47 1009.7
20260504004501 12 266 6.4 29.0 0.00 0.00 0.00 46 1009.6
20260504004002 12 212 6.4 29.0 0.00 0.00 0.00 46 1009.4
20260504003502 12 303 8.0 24.1 0.00 0.00 0.00 45 1009.4
20260504002502 12 287 4.8 14.5 0.00 0.00 0.00 44 1009.3
20260504002001 12 293 3.2 12.9 0.00 0.00 0.00 43 1009.1
20260504001500 12 291 1.6 8.0 0.00 0.00 0.00 44 1009.0
20260504001001 11 281 1.6 6.4 0.00 0.00 0.00 45 1009.0
20260504000501 11 298 1.6 6.4 0.00 0.00 0.00 45 1008.9
20260504000003 11 236 0.0 3.2 0.00 0.00 0.00 46 1008.9
20260503235502 11 166 0.0 1.6 0.00 0.00 0.00 47 1008.9
20260503235001 11 154 0.0 0.0 0.00 0.00 0.00 47 1008.8
20260503234000 11 260 1.6 4.8 0.00 0.00 0.00 47 1008.9
20260503233501 11 150 3.2 12.9 0.00 0.00 0.00 47 1009.0
20260503233001 11 205 3.2 12.9 0.00 0.00 0.00 47 1009.3
20260503232501 11 32 3.2 17.7 0.00 0.00 0.00 47 1009.3
20260503232001 11 274 4.8 17.7 0.00 0.00 0.00 45 1009.5
20260503231502 11 229 4.8 22.5 0.00 0.00 0.00 46 1009.6
20260503231002 11 225 3.2 22.5 0.00 0.00 0.00 44 1009.6
20260503230501 12 229 1.6 8.0 0.00 0.00 0.00 44 1009.6
20260503230002 12 252 1.6 6.4 0.00 0.00 0.00 43 1009.8
20260503225503 12 257 1.6 9.7 0.00 0.00 0.00 43 1009.5
20260503224502 12 240 1.6 9.7 0.00 0.00 0.00 44 1009.3
20260503224002 12 257 1.6 4.8 0.00 0.00 0.00 43 1009.3
20260503223502 12 261 1.6 6.4 0.00 0.00 0.00 43 1009.3
20260503223002 12 242 1.6 6.4 0.00 0.00 0.00 41 1009.2
20260503222501 12 237 1.6 4.8 0.00 0.00 0.00 42 1009.2
20260503222002 12 268 3.2 6.4 0.00 0.00 0.00 42 1009.2
20260503221501 12 170 3.2 6.4 0.00 0.00 0.00 41 1009.1
20260503220501 12 261 1.6 8.0 0.00 0.00 0.00 41 1009.1
20260503220003 12 287 1.6 9.7 0.00 0.00 0.00 41 1009.2
20260503215501 12 218 3.2 9.7 0.00 0.00 0.00 41 1009.4
20260503215001 12 285 3.2 8.0 0.00 0.00 0.00 43 1009.4
20260503214501 11 266 3.2 9.7 0.00 0.00 0.00 41 1009.4
20260503214002 11 253 3.2 9.7 0.00 0.00 0.00 42 1009.4
20260503213501 11 285 3.2 9.7 0.00 0.00 0.00 41 1009.4
20260503213001 11 269 3.2 9.7 0.00 0.00 0.00 42 1009.3
20260503212501 11 259 3.2 9.7 0.00 0.00 0.00 41 1009.4
20260503212001 11 271 3.2 9.7 0.00 0.00 0.00 41 1009.3
20260503211502 12 324 1.6 8.0 0.00 0.00 0.00 42 1009.3
20260503211002 11 325 1.6 8.0 0.00 0.00 0.00 43 1009.4
20260503210501 11 231 4.8 9.7 0.00 0.00 0.00 42 1009.3
20260503205501 11 259 3.2 9.7 0.00 0.00 0.00 43 1009.5
20260503204959 11 266 3.2 12.9 0.00 0.00 0.00 43 1009.5
20260503204000 11 254 3.2 8.0 0.00 0.00 0.00 44 1009.6
20260503203000 11 239 3.2 9.7 0.00 0.00 0.00 46 1009.8
20260503202459 11 245 3.2 11.3 0.00 0.00 0.00 46 1009.8
20260503202000 11 315 4.8 11.3 0.00 0.00 0.00 44 1009.8
20260503201459 11 286 3.2 9.7 0.00 0.00 0.00 44 1009.8
20260503201000 11 227 4.8 19.3 0.00 0.00 0.00 45 1009.9
20260503200500 11 259 3.2 19.3 0.00 0.00 0.00 44 1010.0
20260503200004 11 304 1.6 12.9 0.00 0.00 0.00 44 1009.9
20260503195501 11 232 3.2 14.5 0.00 0.00 0.00 45 1010.1
20260503195002 11 318 3.2 16.1 0.00 0.00 0.00 45 1010.1
20260503194502 11 246 4.8 12.9 0.00 0.00 0.00 45 1010.2
20260503193501 11 288 4.8 14.5 0.00 0.00 0.00 43 1010.3
20260503193001 11 241 3.2 12.9 0.00 0.00 0.00 43 1010.2
20260503192502 11 280 3.2 9.7 0.00 0.00 0.00 42 1010.3
20260503192002 11 288 3.2 11.3 0.00 0.00 0.00 43 1010.4
20260503191501 11 296 4.8 11.3 0.00 0.00 0.00 42 1010.4
20260503191001 11 238 4.8 9.7 0.00 0.00 0.00 40 1010.4
20260503190502 11 266 3.2 9.7 0.00 0.00 0.00 41 1010.4
20260503190002 11 258 3.2 9.7 0.00 0.00 0.00 42 1010.3
20260503184959 11 283 4.8 14.5 0.00 0.00 0.00 42 1010.5
20260503184501 11 292 4.8 11.3 0.00 0.00 0.00 41 1010.5
20260503183500 12 260 3.2 9.7 0.00 0.00 0.00 42 1010.7
20260503183000 11 291 3.2 9.7 0.00 0.00 0.00 40 1010.7
20260503182500 11 275 3.2 6.4 0.00 0.00 0.00 40 1010.8
20260503182000 11 288 4.8 12.9 0.00 0.00 0.00 38 1010.9
20260503181500 11 238 4.8 12.9 0.00 0.00 0.00 36 1011.0
20260503181000 11 250 4.8 12.9 0.00 0.00 0.00 38 1011.0
20260503180459 11 264 4.8 14.5 0.00 0.00 0.00 38 1011.0
20260503180002 11 274 3.2 14.5 0.00 0.00 0.00 36 1011.0
20260503175459 11 272 3.2 8.0 0.00 0.00 0.00 37 1011.1
20260503174959 11 267 4.8 9.7 0.00 0.00 0.00 39 1011.2
20260503174501 11 217 4.8 12.9 0.00 0.00 0.00 40 1011.3
20260503173959 10 252 4.8 12.9 0.00 0.00 0.00 38 1011.3
20260503173500 10 281 3.2 9.7 0.00 0.00 0.00 39 1011.4
20260503172501 10 308 3.2 17.7 0.00 0.00 0.00 37 1011.5
20260503171959 10 276 3.2 17.7 0.00 0.00 0.00 38 1011.5
20260503171500 10 268 3.2 9.7 0.00 0.00 0.00 39 1011.5
20260503171000 10 272 4.8 12.9 0.00 0.00 0.00 38 1011.6
20260503170501 10 243 4.8 12.9 0.00 0.00 0.00 37 1011.7
20260503151000 7 301 3.2 19.3 0.00 0.00 0.00 43 1013.0
20260503150500 7 281 1.6 6.4 0.00 0.00 0.00 45 1013.1
20260503130459 4 233 1.6 9.7 0.00 0.00 0.00 66 1013.6
20260503110459 2 248 0.0 4.8 0.00 0.00 0.00 77 1013.0
20260503081458 3 236 0.0 4.8 0.00 0.00 0.00 77 1012.9
20260503080959 3 249 0.0 4.8 0.00 0.00 0.00 76 1012.9
20260503080459 3 239 0.0 1.6 0.00 0.00 0.00 77 1013.0
20260503072459 3 263 0.0 3.2 0.00 0.00 0.00 76 1012.8